Regional Weather Roundup
Issued by NWS Grand Forks, ND

Home | Current Version | Previous Version | Graphics & Text | Print | Product List | Glossary On
Versions: 1 2 3 4 5 6 7 8 9 10 11 12 13 14 15 16 17 18 19 20 21 22 23 24 25 26 27 28 29 30 31 32 33 34 35 36 37 38 39 40 41 42 43 44 45 46 47 48 49 50
000
ASUS43 KFGF 160110
RWRFGF
PRAIRIE TO PINES  WEATHER ROUNDUP
NATIONAL WEATHER SERVICE EASTERN NORTH DAKOTA/GRAND FORKS ND
700 PM CST FRI DEC 15 2017

 **SATELLITE DATA USED TO AUGMENT SKY COVER AT AUTOMATED STATIONS**
 *****  WEATHER ACROSS EASTERN NORTH DAKOTA  *****

CITY           SKY/WX    TMP DP  RH WIND       PRES   REMARKS
GRAND FORKS    LGT SNOW  23  21  92 SE10      29.63F FOG     WCI  12
GRAND FRKS AFB FLURRIES  23  21  93 SE10      29.62F WCI  12
GRAND FRKS NWS   N/A     23 N/A N/A SE12        N/A  WCI  12
DEVILS LAKE    CLOUDY    27  26  96 SE12      29.54S WCI  17
FARGO          LGT SNOW  29  26  89 SE10      29.63F FOG     WCI  20
WAHPETON ARPT  CLOUDY    30  28  93 SE8       29.64F WCI  23
$$

 ***** WEATHER ACROSS CENTRAL AND WESTERN NORTH DAKOTA  *****

CITY           SKY/WX    TMP DP  RH WIND       PRES   REMARKS
BISMARCK       MOCLDY    41  25  53 W7        29.56R
MINOT          CLOUDY    43  27  53 W14       29.49S
JAMESTOWN      CLOUDY    33  30  88 S8        29.53F
MINOT AFB      CLOUDY    40  27  60 NW9       29.48S
GARRISON         N/A     41  24  51 W13       29.51S
WILLISTON      MOCLDY    41  27  56 W7        29.57R
DICKINSON      FAIR      35  22  58 W8        29.55F
HETTINGER      FAIR      38  20  48 W14       29.60F
$$

 *****  OTHER AIRPORT OBSERVATIONS IN OUR AREA  *****

CITY           SKY/WX    TMP DP  RH WIND       PRES   REMARKS
WALHALLA       LGT SNOW  19  19 100 SE12      29.64R WCI   7
GRAFTON AIRPOR CLOUDY    19  19 100 E13       29.67R FOG     WCI   7
VALLEY CITY AR CLOUDY    28  28 100 SE12      29.58F WCI  18
CANDO          LGT SNOW  28  28 100 SE8       29.55S WCI  20
CAVALIER APRT  LGT SNOW  19  18  93 E10       29.65R WCI   8
GWINNER          N/A     32  30  93 E7        29.59S
SHEYENNE NWR     N/A     29  29 100 SE7       29.95S WCI  22
ROLLA          LGT SNOW  27  27 100 SE9       29.51F WCI  17
 ***** THE ABOVE OBSERVATIONS ARE NON NWS ARE NOT QUALITY
       CONTROLLED AND MAY MIS-REPORT RAIN FOR SNOW...
$$

  *****  WEATHER ACROSS NORTHERN MINNESOTA  *****

CITY           SKY/WX    TMP DP  RH WIND       PRES   REMARKS
FLAG ISLAND    CLOUDY     7   3  85 E7        29.74R WCI  -5
WARROAD        CLOUDY    10   7  85 E10       29.73S WCI  -3
ROSEAU         CLOUDY    12   9  85 E12       29.71S WCI  -2
HALLOCK        LGT SNOW  18  14  86 E14       29.67S WCI   4
THF RVR FALLS  LGT SNOW  16  13  88 E13       29.67F FOG     WCI   2
BAUDETTE       CLOUDY    10   5  80 E8        29.72S WCI  -2
WASKISH        CLOUDY    12   9  85 E7        29.71F WCI   2
CROOKSTON      LGT SNOW  21  19  93 SE10      29.65F WCI  10
STEPHEN NDAWN    N/A     18  14  86 E13         N/A  WCI   4
GREENBUSH NDAW   N/A     14  10  85 E12         N/A  WCI   0
$$
  *****  WEATHER ACROSS CENTRAL AND WEST MINNESOTA  *****

CITY           SKY/WX    TMP DP  RH WIND       PRES   REMARKS
FOSSTON        LGT SNOW  16  14  93 E6        29.66F WCI   7
BEMIDJI        LGT SNOW  14  11  89 E6        29.68S WCI   5
PARK RAPIDS    LGT SNOW  18  14  84 SE5       29.66F FOG     WCI  11
ELBOW LAKE     LGT SNOW  28  28  98 SE7       29.65F WCI  21
WADENA         MIX PCPN  19  18  93 E6        29.67S WCI  11
DETROIT LAKES  LGT SNOW  23  23 100 SE8       29.65F WCI  14
MOORHEAD       LGT SNOW  27  25  93 CALM      29.65S
FERGUS FALLS   DRIZZLE   28  28 100 SE8       29.68S WCI  20
MORRIS MN      CLOUDY    30  28  93 SE9       29.64F WCI  22
STAPLES        MIX PCPN  19  18  93 E5        29.68F WCI  13
$$
  *****  WEATHER ELSEWHERE ACROSS MINNESOTA  *****

CITY           SKY/WX    TMP DP  RH WIND       PRES   REMARKS
DULUTH         FLURRIES  11   5  77 NE3       29.74R
INTRNTL FALLS  CLOUDY     6   0  76 E6        29.75S WCI  -4
ELY            FAIR      -2  -6  84 CALM      29.74S
CLOQUET        FLURRIES  16   9  73 E3        29.74S
WHEATON        CLOUDY    30  28  93 E10       29.66S WCI  21
BRAINERD       LGT SNOW  20  16  84 CALM      29.71S FOG
HIBBING        CLOUDY    11   4  73 SE3       29.73S
ALEXANDRIA     LGT SNOW  27  24  89 SE8       29.66F FOG     WCI  19
SAINT CLOUD    LGT SNOW  23  21  92 E3        29.72S FOG
MINNEAPOLIS    LGT SNOW  27  24  89 SE7       29.75F FOG     WCI  19
$$

  *****  WEATHER ACROSS SOUTH DAKOTA  *****

CITY           SKY/WX    TMP DP  RH WIND       PRES   REMARKS
SIOUX FALLS    CLOUDY    38  27  64 S8        29.67F
BROOKINGS      FAIR      35  26  69 MISG        N/A
WATERTOWN      FAIR      33  28  81 S10       29.59F WCI  25
HURON          MOCLDY    39  28  64 S8        29.62F
SISSETON         N/A     33  31  92 E8        29.61S
ABERDEEN       CLOUDY    36  26  67 S6        29.59F
MITCHELL       FAIR      42  28  57 S9        29.65F
PIERRE         FAIR      43  26  51 W10       29.61F
MOBRIDGE       FAIR      36  26  67 CALM      29.55S
RAPID CITY     FAIR      44  16  32 SE3       29.66F
$$

  *****  SOME WEATHER IN NEARBY STATES *****

CITY           SKY/WX    TMP DP  RH WIND       PRES   REMARKS
GLASGOW MT     FAIR      34  23  64 W6        29.62R
GREAT FALLS MT CLOUDY    44  23  43 W20G30    29.77R
CHEYENNE WY    FAIR      48   5  17 W22G32    29.87F
SCOTTSBLUFF NE FAIR      48  11  22 W12       29.79S
OMAHA NE       FAIR      43  25  49 S10       29.80F
DES MOINES IA  CLOUDY    40  22  48 S10       29.83F
DAVENPORT IA   FAIR      35  21  56 S13       29.91R
CHICAGO IL     CLOUDY    34  22  61 SW7       29.90S
EAU CLAIRE WI  CLOUDY    22  16  78 SE3       29.79F
LA CROSSE WI   CLOUDY    32  27  81 SE3       29.81S
$$

  *****  SOME NATIONAL WEATHER *****

CITY           SKY/WX    TMP DP  RH WIND       PRES   REMARKS
LA GUARDIA NY  LGT SNOW  26  22  84 W7        29.91S FOG     WCI  18
RALEIGH NC     FAIR      34  26  72 W3        30.04R
ATLANTA GA     MOCLDY    35  25  66 NW12G21   30.18R
NEW ORLEANS LA LGT RAIN  48  36  63 N9        30.22F
OKLAHOMA CITY  FAIR      37  22  54 S9        30.12F
ALBUQUERQUE NM FAIR      39  13  34 S5        30.14F
SALT LAKE CITY CLOUDY    34  28  79 NW5       30.06F
LOS ANGELES CA FAIR      64  49  57 W8        30.01F
BOISE ID       FAIR      28  22  78 N9        30.15S WCI  19
SEATTLE WA     CLOUDY    42  41  96 S7        30.21R FOG
$$

*** WEATHER ACROSS MANITOBA...SASKATCHEWAN AND ONTARIO ***
                ***ONTARIO***

CITY           SKY/WX    TMP DP  RH WIND       PRES   REMARKS
GERALDTON      CLEAR    -13 -18  77 NW5       29.82R WCI -25
THUNDER BAY    PTCLDY     0  -4  85 NW2       29.84R
SIOUX LOOKOUT  FLURRIES  -9 -15  77 NE6       29.81S WCI -23
TORONTO        CLOUDY    25  19  80 W20G26    29.72R WCI  11
BIG TROUT LK   LGT SNOW  -9 -15  77 W6        29.90R WCI -23
PICKLE LAKE    CRYSTALS -17 -22  76 W6        29.85R WCI -31
DRYDEN         CLEAR    -11 -15  84 NE7       29.78R WCI -26
KENORA         MOCLDY    -4  -8  84 E10       29.75S WCI -21
$$
                *** MANITOBA***

CITY           SKY/WX    TMP DP  RH WIND       PRES   REMARKS
BRANDON        LGT SNOW  18  14  86 E20       29.56S DRFTSNOWWCI   1
DAUPHIN        LGT SNOW  14  10  85 SE18G24   29.60R WCI  -3
ISLAND LAKE    CLEAR    -15 -20  76 SE6       29.89S WCI -29
PILOT MOUND      N/A     21  19  93 E13         N/A  WCI   9
THE PAS        LGT SNOW   3  -2  78 E10G17    29.66F VSB 1   WCI -12
THOMPSON       PTCLDY   -15 -22  70 E5        29.85S WCI -27
WINNIPEG       LGT SNOW  12   7  79 E14       29.70F WCI  -3
LYNN LAKE      CLOUDY   -15 -20  76 E9        29.73R WCI -33
CHURCHILL      LGT SNOW -13 -18  77 W9        29.96S FOG     WCI -31
$$
                ***SASKATCHEWAN***

CITY           SKY/WX    TMP DP  RH WIND       PRES   REMARKS
ESTEVAN        LGT RAIN  39  32  75 W15G21    29.51S
KINDERSLEY     PTCLDY    32  25  74 NW9       29.65R WCI  24
LLOYDMINSTER   PTCLDY    32  27  80 W12       29.61R WCI  23
PRINCE ALBERT  LGT SNOW  19  16  86 SE2       29.49S
REGINA         CLOUDY    36  34  93 W14       29.52R
YORKTON        CLOUDY    19  18  93 SE14      29.48S WCI   6
N. BATTLEFORD  MOCLDY    36  28  75 W15G22    29.58R
LA RONGE       LGT SNOW   7   3  85 E9        29.54R WCI  -7
SASKATOON      MOCLDY    36  30  80 W15       29.53R
SWIFT CURRENT  CLOUDY    37  28  70 W17       29.62R
$$
NOTE: THESE ARE AUTOMATED STATIONS WITH LIMITED QUALITY CONTROL
      "FAIR" INDICATES FEW OR NO CLOUDS BELOW 12,000 FEET WITH NO
      SIGNIFICANT WEATHER AND/OR OBSTRUCTIONS TO VISIBILITY.
      SKY/WX - SKY CONDITION AND SIGNIFICANT WEATHER.
      TMP - AIR TEMPERATURE.    DP   - DEWPOINT TEMPERATURE.
      RH  - RELATIVE HUMIDITY.  PRES - PRESSURE.
      HX  - HEAT INDEX.         WCI  - WIND CHILL INDEX.
$




USA.gov is the U.S. government's official web portal to all federal, state and local government web resources and services.